OPS 4682 DEB, 14717

Orbit data source: Space-Track

OPS 4682 DEB, 14717 is space debris in LEO originally from a launch on Sat, 03 Apr 1965 UTC launched from the Air Force Western Test Range (AFWTR). Debris objects in space refer to the collection of defunct objects orbiting the Earth. Examples of debris include non-operational satellites, rocket bodies, and fragments generated from explosions, collisions, or faulty payload assembly.

Loading next visibility...
Identifier
14717, 1965-027Q
Orbit
LEO
Country
Flag of USUS
Related business
Manufacturer
Unknown
Mission
Spacecraft
Bus & Motor
Unknown
Mass
Unknown
Launch date (UTC)
1965-04-03 (61 years ago)
Launch vehicle
Unknown
Launch site
Air Force Western Test Range (AFWTR)
Object type
Payload
Rocket body
Debris
Shape & HBR
Unknown shape, 0.1 m
Radar Cross Section
Medium (>0.1 m² and <1 m²)

Expand to show TLE details & history
Last TLE update: 2 days ago

TLE from 2 days ago
0 OPS 4682 DEB
1 14717U 65027Q   26148.49601343  .00000252  00000-0  84082-3 0  9995
2 14717  90.2327 350.2965 0033840 134.8604 252.2106 12.97438355113537
Epoch: 2026-05-28T11:54Z
TLE epoch observation values (Epoch: 2026-05-28T11:54:15.560Z)
Latitude
26.73464°
Longitude
-74.42488°
Altitude
1,283.386 km
Speed
7.213 km/s
True Right ascension
23h 20m 43s
True Declination
26° 36' 22"
Sunlit
Object was in daylight at epoch
Visualization orbit readout
Latitude
Unknown
Longitude
Unknown
Altitude
Unknown
Speed
Unknown
Apparent Right ascension
Unknown
Apparent Declination
Unknown
Sunlit
N/A
Visualization observer readout
Local Sidereal Time
22:04:29
Azimuth
Unknown
Elevation
Unknown
Doppler factor
Unknown
Orbital elements
Apogee altitude
1,295.149 km
Perigee altitude
1,243.392 km
Semi-major axis
7,647.408 km
Eccentricity
0.00338
Inclination
90.2327°
RAAN
350.2965°
Arg. of periapsis
134.8604°
True anomaly
251.84184°
Mean anomaly
252.2106°
Eccentric anomaly
252.02617°
Mean motion
3.24543 °/min
Orbital period
110.93 mins
BSTAR
0.00084082
Loading maneuver chart data...
Computing Atmospheric mass density...
Loading historical data...
Loading historical data...
Loading historical data...
Loading historical data...
Loading historical data...
Loading historical data...
Loading historical data...

Documentation

Showing up to 5 results
|